owner,sensor,date,latitude,longitude,vertical_datum,wind_speed,wind_to_direction,wind_speed_of_gust,qcFlag 
ADCP,ioos:station:wmo:42361:1,2012-05-01T00:30:00Z,27.5500,-92.4900,122.0,8.9,170.0,99.0,'11111222,11111222,11144222' 
ADCP,ioos:station:wmo:42361:1,2012-05-01T01:30:00Z,27.5500,-92.4900,122.0,10.2,171.0,99.0,'11111222,11111222,11144222' 
ADCP,ioos:station:wmo:42361:1,2012-05-01T02:30:00Z,27.5500,-92.4900,122.0,10.7,179.0,99.0,'11111222,11111222,11144222' 
ADCP,ioos:station:wmo:42361:1,2012-05-01T03:30:00Z,27.5500,-92.4900,122.0,10.8,180.0,99.0,'11111222,11111222,11144222' 
ADCP,ioos:station:wmo:42361:1,2012-05-01T04:30:00Z,27.5500,-92.4900,122.0,10.3,180.0,99.0,'11111222,11111222,11144222' 
ADCP,ioos:station:wmo:42361:1,2012-05-01T05:30:00Z,27.5500,-92.4900,122.0,10.3,186.0,99.0,'11111222,11111222,11144222' 
ADCP,ioos:station:wmo:42361:1,2012-05-01T06:30:00Z,27.5500,-92.4900,122.0,8.2,190.0,99.0,'11111222,11111222,11144222' 
ADCP,ioos:station:wmo:42361:1,2012-05-01T07:30:00Z,27.5500,-92.4900,122.0,8.4,190.0,99.0,'11111222,11111222,11144222' 
ADCP,ioos:station:wmo:42361:1,2012-05-01T08:30:00Z,27.5500,-92.4900,122.0,7.6,190.0,99.0,'11111222,11111222,11144222' 
ADCP,ioos:station:wmo:42361:1,2012-05-01T09:30:00Z,27.5500,-92.4900,122.0,6.3,193.0,99.0,'11111222,11111222,11144222' 
ADCP,ioos:station:wmo:42361:1,2012-05-01T10:30:00Z,27.5500,-92.4900,122.0,5.7,192.0,99.0,'11111222,11111222,11144222' 
ADCP,ioos:station:wmo:42361:1,2012-05-01T11:30:00Z,27.5500,-92.4900,122.0,5.4,182.0,99.0,'11111222,11111222,11144222' 
ADCP,ioos:station:wmo:42361:1,2012-05-01T12:30:00Z,27.5500,-92.4900,122.0,4.9,178.0,99.0,'11111222,11111222,11144222' 
ADCP,ioos:station:wmo:42361:1,2012-05-01T13:30:00Z,27.5500,-92.4900,122.0,5.1,169.0,99.0,'11111222,11111222,11144222' 
ADCP,ioos:station:wmo:42361:1,2012-05-01T14:30:00Z,27.5500,-92.4900,122.0,6.2,170.0,99.0,'11111222,11111222,11144222' 
ADCP,ioos:station:wmo:42361:1,2012-05-01T15:30:00Z,27.5500,-92.4900,122.0,7.9,170.0,99.0,'11111222,11111222,11144222' 
ADCP,ioos:station:wmo:42361:1,2012-05-01T16:30:00Z,27.5500,-92.4900,122.0,8.3,167.0,99.0,'11111222,11111222,11144222' 
ADCP,ioos:station:wmo:42361:1,2012-05-01T17:30:00Z,27.5500,-92.4900,122.0,9.0,169.0,99.0,'11111222,11111222,11144222' 
ADCP,ioos:station:wmo:42361:1,2012-05-01T18:30:00Z,27.5500,-92.4900,122.0,8.6,165.0,99.0,'11111222,11111222,11144222' 
ADCP,ioos:station:wmo:42361:1,2012-05-01T19:30:00Z,27.5500,-92.4900,122.0,7.8,158.0,99.0,'11111222,11111222,11144222' 
ADCP,ioos:station:wmo:42361:1,2012-05-01T20:30:00Z,27.5500,-92.4900,122.0,8.5,160.0,99.0,'11111222,11111222,11144222' 
ADCP,ioos:station:wmo:42361:1,2012-05-01T21:30:00Z,27.5500,-92.4900,122.0,8.6,160.0,99.0,'11111222,11111222,11144222' 
ADCP,ioos:station:wmo:42361:1,2012-05-01T22:30:00Z,27.5500,-92.4900,122.0,8.2,157.0,99.0,'11111222,11111222,11144222' 
ADCP,ioos:station:wmo:42361:1,2012-05-01T23:30:00Z,27.5500,-92.4900,122.0,8.6,160.0,99.0,'11111222,11111222,11144222' 
ADCP,ioos:station:wmo:42361:1,2012-05-02T00:30:00Z,27.5500,-92.4900,122.0,9.0,160.0,99.0,'11111222,11111222,11144222' 
ADCP,ioos:station:wmo:42361:1,2012-05-02T01:30:00Z,27.5500,-92.4900,122.0,9.5,160.0,99.0,'11111222,11111222,11144222' 
ADCP,ioos:station:wmo:42361:1,2012-05-02T02:30:00Z,27.5500,-92.4900,122.0,8.8,160.0,99.0,'11111222,11111222,11144222' 
ADCP,ioos:station:wmo:42361:1,2012-05-02T03:30:00Z,27.5500,-92.4900,122.0,8.1,160.0,99.0,'11111222,11111222,11144222' 
ADCP,ioos:station:wmo:42361:1,2012-05-02T04:30:00Z,27.5500,-92.4900,122.0,7.3,161.0,99.0,'11111222,11111222,11144222' 
ADCP,ioos:station:wmo:42361:1,2012-05-02T05:30:00Z,27.5500,-92.4900,122.0,6.1,169.0,99.0,'11111222,11111222,11144222' 
ADCP,ioos:station:wmo:42361:1,2012-05-02T06:30:00Z,27.5500,-92.4900,122.0,4.9,173.0,99.0,'11111222,11111222,11144222' 
ADCP,ioos:station:wmo:42361:1,2012-05-02T07:30:00Z,27.5500,-92.4900,122.0,3.7,173.0,99.0,'11111222,11111222,11144222' 
ADCP,ioos:station:wmo:42361:1,2012-05-02T08:30:00Z,27.5500,-92.4900,122.0,2.4,192.0,99.0,'11111222,11111222,11144222' 
ADCP,ioos:station:wmo:42361:1,2012-05-02T09:30:00Z,27.5500,-92.4900,122.0,0.2,337.0,99.0,'11111222,11111222,11144222' 
ADCP,ioos:station:wmo:42361:1,2012-05-02T10:30:00Z,27.5500,-92.4900,122.0,0.2,340.0,99.0,'11111222,11111222,11144222' 
ADCP,ioos:station:wmo:42361:1,2012-05-02T11:30:00Z,27.5500,-92.4900,122.0,2.1,283.0,99.0,'11111222,11111222,11144222' 
ADCP,ioos:station:wmo:42361:1,2012-05-02T12:30:00Z,27.5500,-92.4900,122.0,2.8,287.0,99.0,'11111222,11111222,11144222' 
ADCP,ioos:station:wmo:42361:1,2012-05-02T13:30:00Z,27.5500,-92.4900,122.0,3.9,290.0,99.0,'11111222,11111222,11144222' 
ADCP,ioos:station:wmo:42361:1,2012-05-02T14:30:00Z,27.5500,-92.4900,122.0,3.6,287.0,99.0,'11111222,11111222,11144222' 
ADCP,ioos:station:wmo:42361:1,2012-05-02T15:30:00Z,27.5500,-92.4900,122.0,3.3,285.0,99.0,'11111222,11111222,11144222' 
ADCP,ioos:station:wmo:42361:1,2012-05-02T16:30:00Z,27.5500,-92.4900,122.0,3.6,262.0,99.0,'11111222,11111222,11144222' 
ADCP,ioos:station:wmo:42361:1,2012-05-02T17:30:00Z,27.5500,-92.4900,122.0,3.6,270.0,99.0,'11111222,11111222,11144222' 
ADCP,ioos:station:wmo:42361:1,2012-05-02T18:30:00Z,27.5500,-92.4900,122.0,3.7,271.0,99.0,'11111222,11111222,11144222' 
ADCP,ioos:station:wmo:42361:1,2012-05-02T19:30:00Z,27.5500,-92.4900,122.0,3.3,256.0,99.0,'11111222,11111222,11144222' 
ADCP,ioos:station:wmo:42361:1,2012-05-02T20:30:00Z,27.5500,-92.4900,122.0,3.4,260.0,99.0,'11111222,11111222,11144222' 
ADCP,ioos:station:wmo:42361:1,2012-05-02T21:30:00Z,27.5500,-92.4900,122.0,3.0,258.0,99.0,'11111222,11111222,11144222' 
ADCP,ioos:station:wmo:42361:1,2012-05-02T22:30:00Z,27.5500,-92.4900,122.0,3.6,255.0,99.0,'11111222,11111222,11144222' 
ADCP,ioos:station:wmo:42361:1,2012-05-02T23:30:00Z,27.5500,-92.4900,122.0,3.8,258.0,99.0,'11111222,11111222,11144222' 
ADCP,ioos:station:wmo:42361:1,2012-05-03T00:30:00Z,27.5500,-92.4900,122.0,2.7,268.0,99.0,'11111222,11111222,11144222' 
ADCP,ioos:station:wmo:42361:1,2012-05-03T01:30:00Z,27.5500,-92.4900,122.0,0.9,316.0,99.0,'11111222,11111222,11144222' 
ADCP,ioos:station:wmo:42361:1,2012-05-03T02:30:00Z,27.5500,-92.4900,122.0,2.2,192.0,99.0,'11111222,11111222,11144222' 
ADCP,ioos:station:wmo:42361:1,2012-05-03T03:30:00Z,27.5500,-92.4900,122.0,3.4,184.0,99.0,'11111222,11111222,11144222' 
ADCP,ioos:station:wmo:42361:1,2012-05-03T04:30:00Z,27.5500,-92.4900,122.0,4.0,203.0,99.0,'11111222,11111222,11144222' 
ADCP,ioos:station:wmo:42361:1,2012-05-03T05:30:00Z,27.5500,-92.4900,122.0,5.0,220.0,99.0,'11111222,11111222,11144222' 
ADCP,ioos:station:wmo:42361:1,2012-05-03T06:30:00Z,27.5500,-92.4900,122.0,5.2,227.0,99.0,'11111222,11111222,11144222' 
ADCP,ioos:station:wmo:42361:1,2012-05-03T07:30:00Z,27.5500,-92.4900,122.0,5.5,230.0,99.0,'11111222,11111222,11144222' 
ADCP,ioos:station:wmo:42361:1,2012-05-03T08:30:00Z,27.5500,-92.4900,122.0,4.8,222.0,99.0,'11111222,11111222,11144222' 
ADCP,ioos:station:wmo:42361:1,2012-05-03T09:30:00Z,27.5500,-92.4900,122.0,4.6,207.0,99.0,'11111222,11111222,11144222' 
ADCP,ioos:station:wmo:42361:1,2012-05-03T10:30:00Z,27.5500,-92.4900,122.0,4.7,204.0,99.0,'11111222,11111222,11144222' 
ADCP,ioos:station:wmo:42361:1,2012-05-03T11:30:00Z,27.5500,-92.4900,122.0,3.9,205.0,99.0,'11111222,11111222,11144222' 
ADCP,ioos:station:wmo:42361:1,2012-05-03T12:30:00Z,27.5500,-92.4900,122.0,4.5,207.0,99.0,'11111222,11111222,11144222' 
ADCP,ioos:station:wmo:42361:1,2012-05-03T13:30:00Z,27.5500,-92.4900,122.0,5.1,207.0,99.0,'11111222,11111222,11144222' 
ADCP,ioos:station:wmo:42361:1,2012-05-03T14:30:00Z,27.5500,-92.4900,122.0,5.7,218.0,99.0,'11111222,11111222,11144222' 
ADCP,ioos:station:wmo:42361:1,2012-05-03T15:30:00Z,27.5500,-92.4900,122.0,5.5,209.0,99.0,'11111222,11111222,11144222' 
ADCP,ioos:station:wmo:42361:1,2012-05-03T16:30:00Z,27.5500,-92.4900,122.0,5.5,215.0,99.0,'11111222,11111222,11144222' 
ADCP,ioos:station:wmo:42361:1,2012-05-03T17:30:00Z,27.5500,-92.4900,122.0,5.6,208.0,99.0,'11111222,11111222,11144222' 
ADCP,ioos:station:wmo:42361:1,2012-05-03T18:30:00Z,27.5500,-92.4900,122.0,5.0,208.0,99.0,'11111222,11111222,11144222' 
ADCP,ioos:station:wmo:42361:1,2012-05-03T19:30:00Z,27.5500,-92.4900,122.0,4.1,203.0,99.0,'11111222,11111222,11144222' 
ADCP,ioos:station:wmo:42361:1,2012-05-03T20:30:00Z,27.5500,-92.4900,122.0,3.7,193.0,99.0,'11111222,11111222,11144222' 
ADCP,ioos:station:wmo:42361:1,2012-05-03T21:30:00Z,27.5500,-92.4900,122.0,4.3,186.0,99.0,'11111222,11111222,11144222' 
ADCP,ioos:station:wmo:42361:1,2012-05-03T22:30:00Z,27.5500,-92.4900,122.0,4.3,175.0,99.0,'11111222,11111222,11144222' 
ADCP,ioos:station:wmo:42361:1,2012-05-03T23:30:00Z,27.5500,-92.4900,122.0,4.8,180.0,99.0,'11111222,11111222,11144222' 
ADCP,ioos:station:wmo:42361:1,2012-05-04T00:30:00Z,27.5500,-92.4900,122.0,4.9,185.0,99.0,'11111222,11111222,11144222' 
ADCP,ioos:station:wmo:42361:1,2012-05-04T01:30:00Z,27.5500,-92.4900,122.0,5.5,187.0,99.0,'11111222,11111222,11144222' 
ADCP,ioos:station:wmo:42361:1,2012-05-04T02:30:00Z,27.5500,-92.4900,122.0,6.3,187.0,99.0,'11111222,11111222,11144222' 
ADCP,ioos:station:wmo:42361:1,2012-05-04T03:30:00Z,27.5500,-92.4900,122.0,6.6,191.0,99.0,'11111222,11111222,11144222' 
ADCP,ioos:station:wmo:42361:1,2012-05-04T04:30:00Z,27.5500,-92.4900,122.0,6.2,197.0,99.0,'11111222,11111222,11144222' 
ADCP,ioos:station:wmo:42361:1,2012-05-04T05:30:00Z,27.5500,-92.4900,122.0,5.5,206.0,99.0,'11111222,11111222,11144222' 
ADCP,ioos:station:wmo:42361:1,2012-05-04T06:30:00Z,27.5500,-92.4900,122.0,4.8,205.0,99.0,'11111222,11111222,11144222' 
ADCP,ioos:station:wmo:42361:1,2012-05-04T07:30:00Z,27.5500,-92.4900,122.0,5.2,202.0,99.0,'11111222,11111222,11144222' 
ADCP,ioos:station:wmo:42361:1,2012-05-04T08:30:00Z,27.5500,-92.4900,122.0,5.5,222.0,99.0,'11111222,11111222,11144222' 
ADCP,ioos:station:wmo:42361:1,2012-05-04T09:30:00Z,27.5500,-92.4900,122.0,4.3,232.0,99.0,'11111222,11111222,11144222' 
ADCP,ioos:station:wmo:42361:1,2012-05-04T10:30:00Z,27.5500,-92.4900,122.0,3.9,239.0,99.0,'11111222,11111222,11144222' 
ADCP,ioos:station:wmo:42361:1,2012-05-04T11:30:00Z,27.5500,-92.4900,122.0,3.5,235.0,99.0,'11111222,11111222,11144222' 
ADCP,ioos:station:wmo:42361:1,2012-05-04T12:30:00Z,27.5500,-92.4900,122.0,3.1,235.0,99.0,'11111222,11111222,11144222' 
ADCP,ioos:station:wmo:42361:1,2012-05-04T13:30:00Z,27.5500,-92.4900,122.0,2.7,235.0,99.0,'11111222,11111222,11144222' 
ADCP,ioos:station:wmo:42361:1,2012-05-04T14:30:00Z,27.5500,-92.4900,122.0,3.5,231.0,99.0,'11111222,11111222,11144222' 
ADCP,ioos:station:wmo:42361:1,2012-05-04T15:30:00Z,27.5500,-92.4900,122.0,3.5,212.0,99.0,'11111222,11111222,11144222' 
ADCP,ioos:station:wmo:42361:1,2012-05-04T16:30:00Z,27.5500,-92.4900,122.0,3.8,208.0,99.0,'11111222,11111222,11144222' 
ADCP,ioos:station:wmo:42361:1,2012-05-04T17:30:00Z,27.5500,-92.4900,122.0,4.6,213.0,99.0,'11111222,11111222,11144222' 
ADCP,ioos:station:wmo:42361:1,2012-05-04T18:30:00Z,27.5500,-92.4900,122.0,4.7,215.0,99.0,'11111222,11111222,11144222' 
ADCP,ioos:station:wmo:42361:1,2012-05-04T19:30:00Z,27.5500,-92.4900,122.0,4.4,222.0,99.0,'11111222,11111222,11144222' 
ADCP,ioos:station:wmo:42361:1,2012-05-04T20:30:00Z,27.5500,-92.4900,122.0,4.6,216.0,99.0,'11111222,11111222,11144222' 
ADCP,ioos:station:wmo:42361:1,2012-05-04T21:30:00Z,27.5500,-92.4900,122.0,5.3,204.0,99.0,'11111222,11111222,11144222' 
ADCP,ioos:station:wmo:42361:1,2012-05-04T22:30:00Z,27.5500,-92.4900,122.0,5.2,211.0,99.0,'11111222,11111222,11144222' 
ADCP,ioos:station:wmo:42361:1,2012-05-04T23:30:00Z,27.5500,-92.4900,122.0,4.5,215.0,99.0,'11111222,11111222,11144222' 
ADCP,ioos:station:wmo:42361:1,2012-05-05T00:30:00Z,27.5500,-92.4900,122.0,4.2,205.0,99.0,'11111222,11111222,11144222' 
ADCP,ioos:station:wmo:42361:1,2012-05-05T01:30:00Z,27.5500,-92.4900,122.0,5.4,201.0,99.0,'11111222,11111222,11144222' 
ADCP,ioos:station:wmo:42361:1,2012-05-05T02:30:00Z,27.5500,-92.4900,122.0,5.1,198.0,99.0,'11111222,11111222,11144222' 
ADCP,ioos:station:wmo:42361:1,2012-05-05T03:30:00Z,27.5500,-92.4900,122.0,6.0,204.0,99.0,'11111222,11111222,11144222' 
ADCP,ioos:station:wmo:42361:1,2012-05-05T04:30:00Z,27.5500,-92.4900,122.0,6.3,213.0,99.0,'11111222,11111222,11144222' 
ADCP,ioos:station:wmo:42361:1,2012-05-05T05:30:00Z,27.5500,-92.4900,122.0,5.6,230.0,99.0,'11111222,11111222,11144222' 
ADCP,ioos:station:wmo:42361:1,2012-05-05T06:30:00Z,27.5500,-92.4900,122.0,4.5,230.0,99.0,'11111222,11111222,11144222' 
ADCP,ioos:station:wmo:42361:1,2012-05-05T07:30:00Z,27.5500,-92.4900,122.0,3.6,229.0,99.0,'11111222,11111222,11144222' 
ADCP,ioos:station:wmo:42361:1,2012-05-05T08:30:00Z,27.5500,-92.4900,122.0,4.4,242.0,99.0,'11111222,11111222,11144222' 
ADCP,ioos:station:wmo:42361:1,2012-05-05T09:30:00Z,27.5500,-92.4900,122.0,5.0,254.0,99.0,'11111222,11111222,11144222' 
ADCP,ioos:station:wmo:42361:1,2012-05-05T10:30:00Z,27.5500,-92.4900,122.0,4.4,277.0,99.0,'11111222,11111222,11144222' 
ADCP,ioos:station:wmo:42361:1,2012-05-05T11:30:00Z,27.5500,-92.4900,122.0,3.4,292.0,99.0,'11111222,11111222,11144222' 
ADCP,ioos:station:wmo:42361:1,2012-05-05T12:30:00Z,27.5500,-92.4900,122.0,1.3,314.0,99.0,'11111222,11111222,11144222' 
ADCP,ioos:station:wmo:42361:1,2012-05-05T13:30:00Z,27.5500,-92.4900,122.0,1.1,315.0,99.0,'11111222,11111222,11144222' 
ADCP,ioos:station:wmo:42361:1,2012-05-05T14:30:00Z,27.5500,-92.4900,122.0,7.2,313.0,99.0,'11111222,11111222,11144222' 
ADCP,ioos:station:wmo:42361:1,2012-05-05T15:30:00Z,27.5500,-92.4900,122.0,3.2,253.0,99.0,'11111222,11111222,11144222' 
ADCP,ioos:station:wmo:42361:1,2012-05-05T16:30:00Z,27.5500,-92.4900,122.0,3.1,256.0,99.0,'11111222,11111222,11144222' 
ADCP,ioos:station:wmo:42361:1,2012-05-05T17:30:00Z,27.5500,-92.4900,122.0,2.9,247.0,99.0,'11111222,11111222,11144222' 
ADCP,ioos:station:wmo:42361:1,2012-05-05T18:30:00Z,27.5500,-92.4900,122.0,4.2,246.0,99.0,'11111222,11111222,11144222' 
ADCP,ioos:station:wmo:42361:1,2012-05-05T19:30:00Z,27.5500,-92.4900,122.0,2.8,235.0,99.0,'11111222,11111222,11144222' 
ADCP,ioos:station:wmo:42361:1,2012-05-05T20:30:00Z,27.5500,-92.4900,122.0,2.8,225.0,99.0,'11111222,11111222,11144222' 
ADCP,ioos:station:wmo:42361:1,2012-05-05T21:30:00Z,27.5500,-92.4900,122.0,2.8,230.0,99.0,'11111222,11111222,11144222' 
ADCP,ioos:station:wmo:42361:1,2012-05-05T22:30:00Z,27.5500,-92.4900,122.0,2.5,222.0,99.0,'11111222,11111222,11144222' 
ADCP,ioos:station:wmo:42361:1,2012-05-05T23:30:00Z,27.5500,-92.4900,122.0,3.2,230.0,99.0,'11111222,11111222,11144222' 
ADCP,ioos:station:wmo:42361:1,2012-05-06T00:30:00Z,27.5500,-92.4900,122.0,3.6,225.0,99.0,'11111222,11111222,11144222' 
ADCP,ioos:station:wmo:42361:1,2012-05-06T01:30:00Z,27.5500,-92.4900,122.0,4.4,211.0,99.0,'11111222,11111222,11144222' 
ADCP,ioos:station:wmo:42361:1,2012-05-06T02:30:00Z,27.5500,-92.4900,122.0,4.9,219.0,99.0,'11111222,11111222,11144222' 
ADCP,ioos:station:wmo:42361:1,2012-05-06T03:30:00Z,27.5500,-92.4900,122.0,4.7,215.0,99.0,'11111222,11111222,11144222' 
ADCP,ioos:station:wmo:42361:1,2012-05-06T04:30:00Z,27.5500,-92.4900,122.0,5.0,213.0,99.0,'11111222,11111222,11144222' 
ADCP,ioos:station:wmo:42361:1,2012-05-06T05:30:00Z,27.5500,-92.4900,122.0,5.2,216.0,99.0,'11111222,11111222,11144222' 
ADCP,ioos:station:wmo:42361:1,2012-05-06T06:30:00Z,27.5500,-92.4900,122.0,4.9,228.0,99.0,'11111222,11111222,11144222' 
ADCP,ioos:station:wmo:42361:1,2012-05-06T07:30:00Z,27.5500,-92.4900,122.0,4.0,251.0,99.0,'11111222,11111222,11144222' 
ADCP,ioos:station:wmo:42361:1,2012-05-06T08:30:00Z,27.5500,-92.4900,122.0,4.8,273.0,99.0,'11111222,11111222,11144222' 
ADCP,ioos:station:wmo:42361:1,2012-05-06T09:30:00Z,27.5500,-92.4900,122.0,5.0,275.0,99.0,'11111222,11111222,11144222' 
ADCP,ioos:station:wmo:42361:1,2012-05-06T10:30:00Z,27.5500,-92.4900,122.0,4.8,279.0,99.0,'11111222,11111222,11144222' 
ADCP,ioos:station:wmo:42361:1,2012-05-06T11:30:00Z,27.5500,-92.4900,122.0,3.3,281.0,99.0,'11111222,11111222,11144222' 
ADCP,ioos:station:wmo:42361:1,2012-05-06T12:30:00Z,27.5500,-92.4900,122.0,3.1,286.0,99.0,'11111222,11111222,11144222' 
ADCP,ioos:station:wmo:42361:1,2012-05-06T13:30:00Z,27.5500,-92.4900,122.0,2.6,287.0,99.0,'11111222,11111222,11144222' 
ADCP,ioos:station:wmo:42361:1,2012-05-06T14:30:00Z,27.5500,-92.4900,122.0,2.1,265.0,99.0,'11111222,11111222,11144222' 
ADCP,ioos:station:wmo:42361:1,2012-05-06T15:30:00Z,27.5500,-92.4900,122.0,2.5,220.0,99.0,'11111222,11111222,11144222' 
ADCP,ioos:station:wmo:42361:1,2012-05-06T16:30:00Z,27.5500,-92.4900,122.0,2.8,219.0,99.0,'11111222,11111222,11144222' 
ADCP,ioos:station:wmo:42361:1,2012-05-06T17:30:00Z,27.5500,-92.4900,122.0,3.2,217.0,99.0,'11111222,11111222,11144222' 
ADCP,ioos:station:wmo:42361:1,2012-05-06T18:30:00Z,27.5500,-92.4900,122.0,4.2,206.0,99.0,'11111222,11111222,11144222' 
ADCP,ioos:station:wmo:42361:1,2012-05-06T19:30:00Z,27.5500,-92.4900,122.0,5.2,212.0,99.0,'11111222,11111222,11144222' 
ADCP,ioos:station:wmo:42361:1,2012-05-06T20:30:00Z,27.5500,-92.4900,122.0,5.5,235.0,99.0,'11111222,11111222,11144222' 
ADCP,ioos:station:wmo:42361:1,2012-05-06T21:30:00Z,27.5500,-92.4900,122.0,4.3,248.0,99.0,'11111222,11111222,11144222' 
ADCP,ioos:station:wmo:42361:1,2012-05-06T22:30:00Z,27.5500,-92.4900,122.0,4.3,235.0,99.0,'11111222,11111222,11144222' 
ADCP,ioos:station:wmo:42361:1,2012-05-06T23:30:00Z,27.5500,-92.4900,122.0,4.0,235.0,99.0,'11111222,11111222,11144222' 
ADCP,ioos:station:wmo:42361:1,2012-05-07T00:30:00Z,27.5500,-92.4900,122.0,4.0,244.0,99.0,'11111222,11111222,11144222' 
ADCP,ioos:station:wmo:42361:1,2012-05-07T01:30:00Z,27.5500,-92.4900,122.0,3.7,252.0,99.0,'11111222,11111222,11144222' 
ADCP,ioos:station:wmo:42361:1,2012-05-07T02:30:00Z,27.5500,-92.4900,122.0,3.6,255.0,99.0,'11111222,11111222,11144222' 
ADCP,ioos:station:wmo:42361:1,2012-05-07T03:30:00Z,27.5500,-92.4900,122.0,2.7,242.0,99.0,'11111222,11111222,11144222' 
ADCP,ioos:station:wmo:42361:1,2012-05-07T04:30:00Z,27.5500,-92.4900,122.0,2.8,226.0,99.0,'11111222,11111222,11144222' 
ADCP,ioos:station:wmo:42361:1,2012-05-07T05:30:00Z,27.5500,-92.4900,122.0,2.1,211.0,99.0,'11111222,11111222,11144222' 
ADCP,ioos:station:wmo:42361:1,2012-05-07T06:30:00Z,27.5500,-92.4900,122.0,2.3,237.0,99.0,'11111222,11111222,11144222' 
ADCP,ioos:station:wmo:42361:1,2012-05-07T07:30:00Z,27.5500,-92.4900,122.0,2.8,225.0,99.0,'11111222,11111222,11144222' 
ADCP,ioos:station:wmo:42361:1,2012-05-07T08:30:00Z,27.5500,-92.4900,122.0,2.9,227.0,99.0,'11111222,11111222,11144222' 
ADCP,ioos:station:wmo:42361:1,2012-05-07T09:30:00Z,27.5500,-92.4900,122.0,3.6,228.0,99.0,'11111222,11111222,11144222' 
ADCP,ioos:station:wmo:42361:1,2012-05-07T10:30:00Z,27.5500,-92.4900,122.0,2.7,250.0,99.0,'11111222,11111222,11144222' 
ADCP,ioos:station:wmo:42361:1,2012-05-07T11:30:00Z,27.5500,-92.4900,122.0,2.3,266.0,99.0,'11111222,11111222,11144222' 
ADCP,ioos:station:wmo:42361:1,2012-05-07T12:30:00Z,27.5500,-92.4900,122.0,2.8,268.0,99.0,'11111222,11111222,11144222' 
ADCP,ioos:station:wmo:42361:1,2012-05-07T13:30:00Z,27.5500,-92.4900,122.0,3.4,255.0,99.0,'11111222,11111222,11144222' 
ADCP,ioos:station:wmo:42361:1,2012-05-07T14:30:00Z,27.5500,-92.4900,122.0,3.4,258.0,99.0,'11111222,11111222,11144222' 
ADCP,ioos:station:wmo:42361:1,2012-05-07T15:30:00Z,27.5500,-92.4900,122.0,3.2,262.0,99.0,'11111222,11111222,11144222' 
ADCP,ioos:station:wmo:42361:1,2012-05-07T16:30:00Z,27.5500,-92.4900,122.0,3.9,247.0,99.0,'11111222,11111222,11144222' 
ADCP,ioos:station:wmo:42361:1,2012-05-07T17:30:00Z,27.5500,-92.4900,122.0,5.2,235.0,99.0,'11111222,11111222,11144222' 
ADCP,ioos:station:wmo:42361:1,2012-05-07T18:30:00Z,27.5500,-92.4900,122.0,3.3,229.0,99.0,'11111222,11111222,11144222' 
ADCP,ioos:station:wmo:42361:1,2012-05-07T19:30:00Z,27.5500,-92.4900,122.0,1.9,222.0,99.0,'11111222,11111222,11144222' 
ADCP,ioos:station:wmo:42361:1,2012-05-07T20:30:00Z,27.5500,-92.4900,122.0,1.8,221.0,99.0,'11111222,11111222,11144222' 
ADCP,ioos:station:wmo:42361:1,2012-05-07T21:30:00Z,27.5500,-92.4900,122.0,2.4,226.0,99.0,'11111222,11111222,11144222' 
ADCP,ioos:station:wmo:42361:1,2012-05-07T22:30:00Z,27.5500,-92.4900,122.0,2.3,209.0,99.0,'11111222,11111222,11144222' 
ADCP,ioos:station:wmo:42361:1,2012-05-07T23:30:00Z,27.5500,-92.4900,122.0,3.4,203.0,99.0,'11111222,11111222,11144222' 
ADCP,ioos:station:wmo:42361:1,2012-05-08T00:30:00Z,27.5500,-92.4900,122.0,3.5,211.0,99.0,'11111222,11111222,11144222' 
ADCP,ioos:station:wmo:42361:1,2012-05-08T01:30:00Z,27.5500,-92.4900,122.0,3.5,217.0,99.0,'11111222,11111222,11144222' 
ADCP,ioos:station:wmo:42361:1,2012-05-08T02:30:00Z,27.5500,-92.4900,122.0,3.6,224.0,99.0,'11111222,11111222,11144222' 
ADCP,ioos:station:wmo:42361:1,2012-05-08T03:30:00Z,27.5500,-92.4900,122.0,3.4,220.0,99.0,'11111222,11111222,11144222' 
ADCP,ioos:station:wmo:42361:1,2012-05-08T04:30:00Z,27.5500,-92.4900,122.0,3.4,217.0,99.0,'11111222,11111222,11144222' 
ADCP,ioos:station:wmo:42361:1,2012-05-08T05:30:00Z,27.5500,-92.4900,122.0,3.6,210.0,99.0,'11111222,11111222,11144222' 
ADCP,ioos:station:wmo:42361:1,2012-05-08T06:30:00Z,27.5500,-92.4900,122.0,3.8,187.0,99.0,'11111222,11111222,11144222' 
ADCP,ioos:station:wmo:42361:1,2012-05-08T07:30:00Z,27.5500,-92.4900,122.0,4.2,173.0,99.0,'11111222,11111222,11144222' 
ADCP,ioos:station:wmo:42361:1,2012-05-08T08:30:00Z,27.5500,-92.4900,122.0,2.5,168.0,99.0,'11111222,11111222,11144222' 
ADCP,ioos:station:wmo:42361:1,2012-05-08T09:30:00Z,27.5500,-92.4900,122.0,0.8,83.0,99.0,'11111222,11111222,11144222' 
ADCP,ioos:station:wmo:42361:1,2012-05-08T10:30:00Z,27.5500,-92.4900,122.0,1.3,72.0,99.0,'11111222,11111222,11144222' 
ADCP,ioos:station:wmo:42361:1,2012-05-08T11:30:00Z,27.5500,-92.4900,122.0,1.8,121.0,99.0,'11111222,11111222,11144222' 
ADCP,ioos:station:wmo:42361:1,2012-05-08T12:30:00Z,27.5500,-92.4900,122.0,1.3,143.0,99.0,'11111222,11111222,11144222' 
ADCP,ioos:station:wmo:42361:1,2012-05-08T13:30:00Z,27.5500,-92.4900,122.0,3.0,175.0,99.0,'11111222,11111222,11144222' 
ADCP,ioos:station:wmo:42361:1,2012-05-08T14:30:00Z,27.5500,-92.4900,122.0,3.4,191.0,99.0,'11111222,11111222,11144222' 
ADCP,ioos:station:wmo:42361:1,2012-05-08T15:30:00Z,27.5500,-92.4900,122.0,2.8,197.0,99.0,'11111222,11111222,11144222' 
ADCP,ioos:station:wmo:42361:1,2012-05-08T16:30:00Z,27.5500,-92.4900,122.0,3.0,222.0,99.0,'11111222,11111222,11144222' 
ADCP,ioos:station:wmo:42361:1,2012-05-08T17:30:00Z,27.5500,-92.4900,122.0,2.6,224.0,99.0,'11111222,11111222,11144222' 
ADCP,ioos:station:wmo:42361:1,2012-05-08T18:30:00Z,27.5500,-92.4900,122.0,2.3,205.0,99.0,'11111222,11111222,11144222' 
ADCP,ioos:station:wmo:42361:1,2012-05-08T19:30:00Z,27.5500,-92.4900,122.0,1.7,220.0,99.0,'11111222,11111222,11144222' 
ADCP,ioos:station:wmo:42361:1,2012-05-08T20:30:00Z,27.5500,-92.4900,122.0,1.1,243.0,99.0,'11111222,11111222,11144222' 
ADCP,ioos:station:wmo:42361:1,2012-05-08T21:30:00Z,27.5500,-92.4900,122.0,2.4,193.0,99.0,'11111222,11111222,11144222' 
ADCP,ioos:station:wmo:42361:1,2012-05-08T22:30:00Z,27.5500,-92.4900,122.0,1.9,216.0,99.0,'11111222,11111222,11144222' 
ADCP,ioos:station:wmo:42361:1,2012-05-08T23:30:00Z,27.5500,-92.4900,122.0,0.4,324.0,99.0,'11111222,11111222,11144222' 
ADCP,ioos:station:wmo:42361:1,2012-05-09T00:30:00Z,27.5500,-92.4900,122.0,0.1,7.0,99.0,'11111222,11111222,11144222' 
ADCP,ioos:station:wmo:42361:1,2012-05-09T01:30:00Z,27.5500,-92.4900,122.0,0.3,5.0,99.0,'11111222,11111222,11144222' 
ADCP,ioos:station:wmo:42361:1,2012-05-09T02:30:00Z,27.5500,-92.4900,122.0,0.6,19.0,99.0,'11111222,11111222,11144222' 
ADCP,ioos:station:wmo:42361:1,2012-05-09T03:30:00Z,27.5500,-92.4900,122.0,0.8,51.0,99.0,'11111222,11111222,11144222' 
ADCP,ioos:station:wmo:42361:1,2012-05-09T04:30:00Z,27.5500,-92.4900,122.0,1.2,58.0,99.0,'11111222,11111222,11144222' 
ADCP,ioos:station:wmo:42361:1,2012-05-09T05:30:00Z,27.5500,-92.4900,122.0,1.0,42.0,99.0,'11111222,11111222,11144222' 
ADCP,ioos:station:wmo:42361:1,2012-05-09T06:30:00Z,27.5500,-92.4900,122.0,1.9,85.0,99.0,'11111222,11111222,11144222' 
ADCP,ioos:station:wmo:42361:1,2012-05-09T07:30:00Z,27.5500,-92.4900,122.0,0.6,27.0,99.0,'11111222,11111222,11144222' 